2021-058A (48871 NORAD) Tracking and Keplerian Element Data

This shows tracking and keplerian element data for the satellite.

Feedback or suggestion? Click here.




ElementValue
Catalog48871
Name2021-058A
Epoch Orbit1343
Epoch Day269.12025304
Epoch Year2021
RAAN248.7182
Inclination60.6693
Eccentricity0.0045963
Argument of Perigee238.0359
Mean Anonmoly121.6263
Mean Motion15.35599174
Decay Rate3.754E-05
L11 48871U 21058A 21269.12025304 .00003754 00000-0 11312-3 0 9991
L22 48871 60.6693 248.7182 0045963 238.0359 121.6263 15.35599174 13430

Live tracking and technical data element details for 2021-058A (NORAD 48871). 2021-058A can be tracked NOW for your location showing map with azimuth and elevation plus other details from your city location.

Track the satellite on the map from your city or location and see movement details for azimuth, elevation, latitude, longitude, range, height, and movement on the map or in text.







IsCatalogInMostPopularTable: catalog: 48871, numindb: 17
Update: records affected: 1



GetName: 48871 2021-058A

Hit Count: updated at: Sun, 26 Sep 2021 16:43:16 GMT